Regional Weather Roundup
Issued by NWS Wakefield, VA

Home | Current Version | Previous Version | Graphics & Text | Print | Product List | Glossary On
Versions: 1 2 3 4 5 6 7 8 9 10 11 12 13 14 15 16 17 18 19 20 21 22 23 24 25 26 27 28 29 30 31 32 33 34 35 36 37 38 39 40 41 42 43 44 45 46 47 48
000
ASUS41 KAKQ 290514
RWRAKQ

REGIONAL WEATHER ROUNDUP
NATIONAL WEATHER SERVICE WAKEFIELD VA
100 AM EDT SAT AUG 29 2015

Note: "fair" indicates few or no clouds below 12,000 feet with no
significant weather and/or obstructions to visibility. * = Denotes
station may not report precipitation (e.g., rain,snow,etc.),
thunder or fog.

VAZ042-051-052>054-056-290600-
NORTHERN VIRGINIA

CITY           SKY/WX    TMP DP  RH WIND       PRES   REMARKS
WASH NATIONAL  MOCLDY    72  60  66 S3        30.21S
DULLES         MOCLDY    70  61  73 S3        30.21R
FORT BELVOIR   PTCLDY    65  62  91 CALM      30.21R
QUANTICO       CLOUDY    74  57  55 SW6       30.22R
FREDERICKSBRG* MOCLDY    69  62  78 CALM      30.20S
STAFFORD*      PTCLDY    62  60  94 CALM      30.25R
WARRENTON      MOCLDY    66  64  91 CALM      30.21S
CULPEPER*      MOCLDY    65  63  94 CALM      30.22S
MANASSAS*      CLOUDY    70  64  83 CALM      30.21R
LEESBURG*      CLOUDY    68  64  88 CALM      30.23R
WINCHESTER     PTCLDY    64  61  88 CALM      30.20S
FRONT ROYAL*   FAIR      64  61  88 CALM      30.19S
LURAY*         MOCLDY    66  61  82 CALM      30.21S
$$

VAZ048-049-060>072-079>083-290600-
CENTRAL AND SOUTH CENTRAL VIRGINIA

CITY           SKY/WX    TMP DP  RH WIND       PRES   REMARKS
RICHMOND       CLEAR     68  59  73 CALM      30.21R
CHESTERFIELD*  FAIR      63  48  59 CALM      30.23R
PETERSBURG*    CLEAR     59  59 100 CALM      30.22S
HANOVER        PTCLDY    63  60  90 CALM      30.22S
TAPPAHANNOCK*  CLEAR     62  57  85 CALM      30.22S
QUINTON*       FAIR      62  61  97 CALM      30.21S
CHARLOTTSVILLE MOCLDY    72  61  68 S5        30.21S
GORDONSVILLE*  MOCLDY    66  64  94 CALM      30.21S
ORANGE*        CLOUDY    68  63  83 S3        30.23S
LOUISA*        PTCLDY    64  61  88 CALM      30.21R
BUMPASS*       MOCLDY    64  61  89 MISG      30.21S
FARMVILLE*     PTCLDY    64  64  99 CALM      30.20S
CREWE*         FAIR     N/A N/A N/A CALM      30.22R
FORT PICKETT*  FAIR      64  59  84 S3        30.22R
CHASE CITY*    FAIR      66  64  93 CALM      30.22R
CLARKSVILLE*   FAIR      66  61  82 CALM      30.21S
SOUTH HILL*    CLEAR     59  58  97 CALM      30.27S
LAWRENCEVILLE* FAIR      63  61  94 CALM      30.21S
EMPORIA*       CLEAR     59  59 100 CALM      30.23S
$$

VAZ088>098-290600-
SOUTHEAST VIRGINIA

CITY           SKY/WX    TMP DP  RH WIND       PRES   REMARKS
NORFOLK        CLEAR     69  62  78 CALM      30.20R
VIRGINIA BEACH PTCLDY    67  58  72 CALM      30.19S
NORFOLK NAVAL  PTCLDY    65  59  81 CALM      30.22R
WEST POINT*    CLEAR     62  58  88 CALM      30.22S
SALUDA*        FAIR      64  60  87 SE5       30.21R
NEWPORT NEWS   CLEAR     62  59  90 CALM      30.21R
LANGLEY AFB    CLEAR     65  60  86 CALM      30.20R
FORT EUSTIS    CLEAR     66  66 100 NE2       30.19R
WILLIAMSBURG*  CLEAR     68  64  88 CALM      30.22R
HR EXEC AP*      N/A     55  52  88 CALM      30.23R
FRANKLIN*      CLEAR     59  58  95 CALM      30.21S
WAKEFIELD      CLEAR     61  58  90 CALM      30.21R
$$

VAZ020-022-025-037-045-290600-
WEST CENTRAL AND SOUTHWEST VIRGINIA

CITY           SKY/WX    TMP DP  RH WIND       PRES   REMARKS
STAUNTON*      CLOUDY    71  62  73 SW3       30.24S
WAYNESBORO*    MOCLDY    68  60  74 CALM      30.24R
HOT SPRINGS VA PTCLDY    65  56  74 S8        30.31S
LYNCHBURG      CLEAR     64  59  83 CALM      30.23S
DANVILLE       PTCLDY    63  60  90 CALM      30.21R
SOUTH BOSTON*  FAIR      62  61  95 CALM      30.21S
MARTINSVILLE   PTCLDY    61  61 100 CALM      30.25R FOG
ROANOKE        PTCLDY    68  62  81 CALM      30.24R
BLACKSBURG     CLOUDY    67  63  87 CALM      30.29S
DUBLIN*        CLOUDY    66  65  96 CALM      30.27S
MARION*        PTCLDY    63  59  88 NE3       30.30S
HILLSVILLE*    PTCLDY    62  58  86 CALM      30.28S
RICHLANDS*     FAIR      69  25  19 S3        30.26S
WISE*          CLEAR     70  55  60 S6        30.27S
ABINGDON*      PTCLDY    66  59  78 CALM      30.24S
$$

MDZ021>025-VAZ099-100-290600-
SOUTHERN MARYLAND AND THE DELMARVA PENINSULA

CITY           SKY/WX    TMP DP  RH WIND       PRES   REMARKS
PATUXENT RIVER PTCLDY    67  61  81 S5        30.20S
BAY BRIDGE APT   N/A     70  63  78 SE3       30.20F
LEONARDTOWN    CLOUDY    66  59  77 CALM      30.22S
DOVER          CLEAR     67  59  77 SW6       30.19S
GEORGETOWN     CLEAR     62  56  80 CALM      30.22R
EASTON         NOT AVBL
CAMBRIDGE      CLEAR     63  57  82 CALM      30.21R
SALISBURY      CLEAR     61  57  87 CALM      30.21R
OCEAN CITY     CLEAR     60  57  89 CALM      30.21R
WALLOPS ISLAND CLEAR     62  60  93 CALM      30.22R
ACCOMACK*      CLEAR     55  52  88 CALM      30.21S
$$

NCZ012>017-030>032-290600-
NORTH CENTRAL AND EASTERN NORTH CAROLINA

CITY           SKY/WX    TMP DP  RH WIND       PRES   REMARKS
ROANOKE RAPIDS FAIR      59  57  94 CALM      30.21R
RALEIGH        MOCLDY    68  61  78 CALM      30.21R
ELIZABETH CITY PTCLDY    66  62  87 E3        30.19S
AHOSKIE*       PTCLDY    59  57  91 CALM      30.21R
EDENTON*       PTCLDY    66  62  88 CALM      30.19S
CURRITUCK*     PTCLDY    67  62  84 CALM      30.20S
KILL DEVIL HLS PTCLDY    74  64  70 E7        30.18R
MANTEO         CLOUDY    74  65  74 E8        30.19R
CAPE HATTERAS  MOCLDY    76  67  73 NE8G20    30.16S
TARBORO*       FAIR      60  59  95 CALM      30.21R
GOLDSBORO      CLEAR     65  62  90 CALM      30.18R
WASHINGTON     CLEAR     63  61  94 CALM      30.19S
GREENVILLE     CLEAR     63  63 100 CALM      30.20S
NEW BERN       CLEAR     71  64  78 NE7       30.19S
WILMINGTON     CLEAR     70  66  87 N5        30.16F
$$

VAZ048-290600-
ELSEWHERE

CITY           SKY/WX    TMP DP  RH WIND       PRES   REMARKS
HARRISBURG PA  PTCLDY    65  59  81 NE3       30.20S
BALTIMORE      PTCLDY    62  59  90 CALM      30.21R
ANNAPOLIS      CLEAR     71  64  78 N3        30.19F
ANDREWS AFB    CLOUDY    67  59  75 S5        30.20S
PHILADELPHIA   CLEAR     69  59  70 CALM      30.21R
HENDERSON NC   PTCLDY    67  58  72 CALM      30.22S
GREENSBORO     MOCLDY    70  58  65 S3        30.21R
ROCKY MOUNT    PTCLDY    63  60  90 CALM      30.20R
$$

VAZ100-290600-
MARINE

STATION/POSITION TIME  TEMP    WIND        PRES    WAVE   SWELL
                       AIR SEA DIR/SP/G            HT/PER HT/PER
                 (UTC) (F)     (DEG/KT/KT) (MB)    (FT/S) (FT/S)
15NM E FENWICK I 0450   75 78  180/  6/  8 1023.0R   3/11   3/11
CHESAPEAKE LGHT  0400   76      80/ 10/ 11 1023.1F
CAPE HENRY BUOY  0428      78                N/A     3/12   2/12
CAPE CHARLES BUO 0426      78                N/A     3/ 9   3/ 9
OFFSHORE WE BUOY 0411      78                N/A     3/11   3/11
64NM E OF VA BCH 0450   77 79   50/ 10/ 14 1022.0R   4/10   3/10
44100 DUCK FRF   0424      78                N/A     4/11   2/11
44056 DUCK FRF   0411      78                N/A     4/11   2/11
DIAMOND SHLS NC  0450   77 82   60/ 17/ 19 1020.7R   4/11   3/11
CAPE LOOKOUT NC  0500   77      40/ 16/ 19 1020.7S
$$


USA.gov is the U.S. government's official web portal to all federal, state and local government web resources and services.